Home > Weather > Zittau > Past weeks

Flag for Germany Past Weather in Zittau, Saxony, Germany — Yesterday and Last 2 Weeks

Now
62 °F

Cool.


Feels Like: 62 °F
Forecast: 59 / 82 °F
Wind: 3 mph from Southeast

Location: Liberec

Current Time: Aug 27, 2016 at 6:58:10 AM

Latest Report: Aug 27, 2016 at 6:00 AM


Visibility: 13 mi

Pressure: 30.15 "Hg

Humidity: 69%

Dew Point: 51 °F

Location of ZittauLocation

Past Weather in Zittau — Graph

°F

Zittau Temperature Yesterday

Maximum temperature yesterday: 80 °F (at 5:00 PM)
Minimum temperature yesterday: 60 °F (at 6:00 AM)
Average temperature yesterday: 70 °F

High & Low Weather Summary for the Past Weeks

 TemperatureHumidityPressure
High80 °F (Aug 26, 5:00 PM)99% (Aug 18, 5:00 AM)30.38 "Hg (Aug 18, 5:00 AM)
Low41 °F (Aug 18, 3:00 AM)27% (Aug 19, 4:00 PM)29.78 "Hg (Aug 18, 5:00 PM)
Average61 °F72%30.11 "Hg
* Reported Aug 12 5:00 AM — Aug 27 5:00 AM, Zittau, Weather by CustomWeather, © 2016

Note: Actual official high and low records may vary slightly from our data, if they occured in-between our weather recording intervals... More about our weather records

Advertising

Zittau Weather History for the Previous 24 Hours

Scroll right to see more
 ConditionsComfort  
Time TempWeatherWind HumidityBarometerVisibility
5:00 AM
Sat, Aug 27
64 °FMild.3 mph65%30.15 "Hg12 mi
4:00 AM63 °FMild.3 mph66%30.15 "Hg12 mi
3:00 AM64 °FMild.3 mph64%30.15 "Hg12 mi
2:00 AM65 °FMild.2 mph63%30.15 "Hg12 mi
1:00 AM66 °FMild.3 mph60%30.14 "Hg12 mi
12:00 AM66 °FMild.3 mph61%30.14 "Hg12 mi
11:00 PM
Fri, Aug 26
68 °FMild.2 mph59%30.14 "Hg12 mi
10:00 PM69 °FClear.2 mph56%30.13 "Hg19 mi
9:00 PM70 °FClear.2 mph55%30.11 "Hg22 mi
8:00 PM72 °FClear.2 mph49%30.10 "Hg25 mi
7:00 PM76 °FMild.2 mph41%30.08 "Hg12 mi
6:00 PM80 °FPleasantly warm.3 mph35%30.07 "Hg12 mi
5:00 PM80 °FSunny.5 mph35%30.07 "Hg25 mi
4:00 PM79 °FSunny.5 mph36%30.08 "Hg25 mi
3:00 PM79 °FSunny.3 mph36%30.09 "Hg25 mi
2:00 PM77 °FSunny.5 mph40%30.11 "Hg25 mi
1:00 PM76 °FSunny.6 mph40%30.11 "Hg25 mi
12:00 PM75 °FSunny.5 mph44%30.12 "Hg25 mi
11:00 AM72 °FSunny.6 mph47%30.14 "Hg25 mi
10:00 AM70 °FSunny.5 mph50%30.14 "Hg25 mi
9:00 AM69 °FSunny.5 mph52%30.15 "Hg22 mi
8:00 AM67 °FSunny.3 mph59%30.15 "Hg22 mi
7:00 AM62 °FCool.3 mph70%30.16 "Hg12 mi
6:00 AM60 °FCool.3 mph78%30.16 "Hg12 mi
Weather by CustomWeather, © 2016

See weather overviewHow to use our weather pages